Summary
SolveCast - Internet of things



What are the problems and solutions related to internet of things? The goal of this page is to use expert feedback, machine learning, your informed opinion and a library of millions of articles to provide a complete and up-to-date analysis of internet of things.

Internet of things is generally classified as solution. We are tracking 1 input(s) and 10 output(s) of internet of things.

Stay up to date on Internet of things
Exclusive analysis and alerts on problems and solutions related to Internet of things.
All Public Topics
The following is a list of all topics associated with internet of things. You can sort them by the date discovered, the number of mentions or other (enterprise only). This is a good place to start to watch for new or trending topics. Only topics discovered in media search, public experts are included here.
Entities Date Discovered Media Count Value Cost Per Month Adwords SEO Difficulty
Internet 2019-02-14 1128 2.44 18600 77
IBM 2019-02-14 960 1.37 3680 76
Cisco Systems 2019-02-13 859 0 0 72
Microsoft 2019-02-14 745 0.31 1980 81
Compound Annual Growth Rate 2019-02-14 641 0 0 62
Cloud Computing 2019-02-13 544 21.98 3990 68
Intel 2019-02-14 500 0.33 2180 67
Google 2019-02-14 409 0.48 240 83
SAP Software 2019-02-13 372 3.11 2440 64
Oracle Corporation 2019-02-14 335 0.95 8.7 67
Digital Terrestrial Television 2019-02-14 312 0 0 46
United States Dollar 2019-02-14 298 0.17 0.9 68
Automation 2019-02-13 297 3.17 1150 72
Honeywell 2019-02-14 294 0.41 184 78
Siemens 2019-02-14 288 0.28 110 72
Huawei 2019-02-14 274 0.4 384 69
General Electric 2019-02-14 255 0.93 2510 77
Middle East 2019-02-14 250 0.58 0.6 69
Amazon Web Services 2019-02-14 250 6.06 4480 70
Ecosystem 2019-02-14 248 0.12 0 66
Wireless 2019-02-14 243 1.01 323 74
Chief Executive Officer 2019-02-14 243 4.32 4.5 59
Health Care 2019-02-14 240 6.24 4380 87
Qualcomm 2019-02-14 237 1.05 4940 71
Energy 2019-02-14 236 3.81 1950 81
Smart City 2019-02-14 224 3.13 56.4 64
Market Share 2019-02-14 215 1.96 5.4 65
Robert Bosch GmbH 2019-02-14 212 1.04 11.7 62
Wi-Fi 2019-02-14 200 1.48 3650 66
AT&T 2019-02-14 195 0.57 49800 1
Accenture 2019-02-14 195 0.77 7390 65
SWOT Analysis 2019-02-14 179 3.18 5010 60
Big Data 2019-02-13 176 14.53 5170 68
Smartphones 2019-02-13 163 3.12 3720 62
Machine learning 2019-02-13 158 5.04 890 66
Supply Chain 2019-02-13 155 3.26 114 69
Logistics 2019-02-14 152 1.68 152 72
Twitter 2019-02-14 143 0.2 66700 72
Cybersecurity 2019-05-13 141 15.29 659 75
Computer Security 2019-02-14 140 8.35 123 71
Privacy 2019-02-13 130 0.73 710 70
LTE (telecommunication) 2019-02-14 128 0 0 0
Market Segmentation 2019-02-14 125 2.4 131 54
Consumer Electronics Show 2019-02-14 124 0.35 12.9 67
Original Equipment Manufacturer 2019-02-14 119 2.28 21.3 56
Enterprise (NX-01) 2019-02-14 108 0 0 0
Verizon Communications 2019-02-17 99 0.51 96.9 71
Engineering 2019-02-14 94 2.41 525 90
Surveying 2019-02-14 93 1.4 67.5 74
Agriculture 2019-02-14 93 0.42 3.6 82
Wearable Computer 2019-02-14 92 0.44 6.6 62
Data Analysis 2019-02-14 90 8.69 743 65
Gemalto 2019-02-14 89 0.93 59.4 64
NASDAQ 2019-02-14 89 1.23 112 71
Bluetooth 2019-02-14 88 0.64 877 58
Authentication 2019-02-14 84 2.57 389 61
LinkedIn 2019-02-14 84 1.61 5180 72
Hitachi 2019-02-16 83 0.58 247 74
Battery (electricity) 2019-02-14 81 0 0 0
Ericsson 2019-02-14 80 0.2 0 66
Firmware 2019-02-14 77 0.88 81.3 50
Scalability 2019-02-14 77 0 0 62
Asset 2019-02-14 75 1.13 16.2 69
Semiconductor 2019-02-14 73 0.98 28.8 69
Evolution 2019-02-14 73 0.64 30.6 76
NXP Semiconductors 2019-02-14 73 2.52 242 68
4G 2019-02-14 72 1.99 460 60
Broadcast Syndication 2019-02-14 71 0 0 53
Latency (engineering) 2019-02-14 71 0 0 0
Research And Development 2019-02-14 69 9.85 193 57
Vulnerabilities 2019-02-13 69 0 0 61
Application Programming Interface 2019-02-14 68 6.28 12.6 65
Encryption 2019-02-14 68 2.38 1050 62
Hewlett-Packard 2019-02-16 58 0 0 0
SalesForce 2019-02-13 38 2.85 98200 55
Supply Chain Management 2019-03-23 22 17.17 10200 83
Financial Technology 2019-02-13 19 9.02 297 69
Software as a Service (saas) 2019-02-13 16 18.84 2.1 61
Deep Learning 2019-02-13 15 11.45 3300 70
Data privacy 2019-03-07 14 13.44 355 61
Building Information Modeling 2019-04-11 10 3.42 69.9 54
Customer Service 2019-02-13 4 1 814 67
Workplace 2019-04-09 2 0.22 1090 77
Automotive Industry 2019-04-26 0 3.43 144 62
Algorithms 2019-05-15 0 0.24 5.7 66
Connected Cars 2019-03-07 0 1.41 1.8 51
Vehicle accidents 2019-03-07 0 0 0 71
Vehicles (autonomous) 2019-03-07 0 0 0 0
Hockey 2019-03-07 0 0.38 6.3 66
Baseball 2019-03-07 0 0 0 72
Golf 2019-03-07 0 0.49 461 71
Smart Grid 2019-03-07 0 4.77 124 67
Blockchain 2018-05-27 20 0 0 65
Artificial Intelligence 2019-02-12 555 13.3 12300 69
Word Cloud
Latest Articles
Published Facebook Count Title
It’s a Millennial World Now: Twelve Things to Know (Added 2 weeks ago) (i)
Kinetica - When AI Meets BI, Welcome to the Extreme Data Economy (Added 10 months ago) (i)
2018-10-16 Gartner picks digital ethics and privacy as a strategic trend for 2019 (Added 9 months ago) (i)
Tech Leaders Look To IoT, AI & Robotics To Fuel Growth Through 2021 (Added 9 months ago) (i)
Can AI Bank On Blockchain To Power Science & Medicine's Future Progress? (Added 9 months ago) (i)
Tech calendar 2018-19: Upcoming events of interest to IT pros - IPv6.net (Added 9 months ago) (i)
Video Interview: Brilliant Touch & Voice Control Wall Switch Goes On Sale (Added 10 months ago) (i)
Compass Intelligence Announces Winners of The CompassIntel IoT Innovator Awards (Added 10 months ago) (i)
IoT Energy Applications: From Smart Vehicles to Smart Meters (Added 10 months ago) (i)
Telehealth Integration Helps Providers Connect with Patients (Added 10 months ago) (i)
Comparing Google Home Hub vs Amazon Echo Show 2 vs Facebook Portal (Added 10 months ago) (i)
Blockchain and the Internet of Things: the IoT blockchain picture (Added 10 months ago) (i)
A majority of Americans don’t think social networks are good for the world (Added 9 months ago) (i)
Blockchain Or Bust: Can Software 'Orchestration' Boost Adoption Of Decentralized Apps? (Added 10 months ago) (i)
Photos: 22 eco-friendly tech products to celebrate Earth Day (Added 10 months ago) (i)
How Artificial Intelligence is Transforming the Manufacturing Workforce (Added 10 months ago) (i)
91% Of Enterprises Expect AI To Deliver New Business Growth by 2023 (Added 10 months ago) (i)
How privatized cannabis sales threaten your privacy (Added 11 months ago) (i)
Reflections from a Hashtag (Added 11 months ago) (i)
Why Data Scientists Are Crucial For AI Transformation (Added 11 months ago) (i)
Semtech LoRa-based IoT Solution Saves 22% in Water Management (Added 11 months ago) (i)
11 Innovative Tools To Power Your Marketing Research Process | EquiBrand | Marketing Consulting | Branding | Digital | Innovation (Added 11 months ago) (i)
Sprint and SoftBank Family Team to Create Curiosity IoT | Sprint Newsroom (Added 11 months ago) (i)
Inside the New Industrial Revolution (Added 9 months ago) (i)
Merging Internet Of Things And Blockchain In Preparation For The Future (Added 8 months ago) (i)
Nonprofit Marketing: 5 Innovative Ways to Boost Your Efforts - TechnologyAdvice (Added 1 month ago) (i)
2019-01-16 2 Ford and IBM Partners to Track the Supply of Cobalt from Congo Using Blockchain (Added 6 months ago) (i)
2019-05-08 0 Led by F5 founder, Seattle cybersecurity startup Tempered Networks raises $17M (Added 3 months ago) (i)
2019-05-08 0 What Will the Internet of Things Mean for Cybersecurity? (Added 3 months ago) (i)
2019-05-08 0 Why Retail Cybersecurity Market is Becoming Increasingly Popular in the Technology Industry? - openPR (Added 3 months ago) (i)
2019-05-09 0 MIL-OSI Global: Cybersecurity for Indonesia: what needs to be done? – ForeignAffairs.co.nz (Added 3 months ago) (i)
2019-05-08 0 Tipping the Scale for Effective Cybersecurity (Added 3 months ago) (i)
2019-04-03 17 How IoT Impacts the Digital Workplace (Added 4 months ago) (i)
2019-03-25 0 Boosting data privacy across Europe (Added 4 months ago) (i)
2019-03-20 0 Supply Chain Management Software Industry (Market) Growth Analysis By top key Players | SAP,Oracle Corporation,JDA Software Group, Inc.,Infor,Manhattan Associates,Epicor Software Corporation,The Descartes Systems Group Inc.,HighJump,Kinaxis Inc.,IBM Corpo - openPR (Added 4 months ago) (i)
2019-03-21 0 Global RFID Readers, Tags and Software Markets, 2018-2024: Market is Predominantly Driven by the Rising Need for Efficient Supply Chain Management in the Developing Economies (Added 4 months ago) (i)
2018-12-16 0 Oregon Global Warming Commission Publishes Biennial Report to the Legislature.(Report) (Added 6 months ago) (i)
IoT Report: How Internet of Things technology growth is reaching mainstream companies and consumers (Added 6 months ago) (i)
Carpool for the Climate and Community (Added 8 months ago) (i)
Google’s Sidewalk Labs Plans to Package and Sell Location Data on Millions of Cellphones (Added 6 months ago) (i)
NHL plans to deploy Puck and Player Tracking technology next season (Added 6 months ago) (i)
Commentary: How 3D Printing Is Fighting Global Warming (Added 6 months ago) (i)
I kicked my smartphone addiction by retraining my brain to enjoy being bored (Added 7 months ago) (i)
IoT security is so bad, many companies can’t tell when they’re hacked (Added 7 months ago) (i)
Artificial Intelligence—A Game Changer for Climate Change and the Environment (Added 7 months ago) (i)
How Do Smartphones Affect the Brain? (Added 7 months ago) (i)
Smart Dust Is Coming. Are You Ready? (Added 7 months ago) (i)
5 Predictions about Data Science, Machine Learning, and AI for 2019 (Added 7 months ago) (i)
Ridesharing vs. Taxis: Rethinking Regulations to Allow for Innovation (Added 8 months ago) (i)
How The Internet Of Things And AI Help Keep The Lights On (Added 11 months ago) (i)
Key Stats
SEO Difficulty +
Adword Cost Per Month +
Adword Cost Per Click +
Global Monthly Searches Exact +
Google Trends